Dewpoint
14 9 7 7 6 7 8 9 10 12 13 13 13 12 11 11 9 9 8 7 6 3 8 10 5 6 12 12 10 10 9 9 8 6 3 -1 -4 -5 -6 -3 -0 6 8
10 9 5 5 5 4 4 4 6 8 10 13 13 12 10 8 8 8 3 2 -3 -4 6 11 13 13 12 11 10 9 9 6 1 -4 -4 -1 -0 -1 -6 -3 1 1 -0
10 8 4 4 3 -0 -2 -2 -2 -2 -0 4 8 5 8 10 9 2 -7 -8 -8 -7 7 10 10 11 11 10 9 8 3 -5 -1 2 2 1 3 5 1 -6 -0 8 7
8 6 3 2 1 1 1 -1 -5 -5 -2 -3 6 12 12 10 2 -6 -6 -7 -7 -7 8 10 10 9 9 7 2 -3 -4 1 5 7 7 8 6 7 5 -1 -1 3 8
7 5 3 4 4 3 3 -0 -6 -2 -1 10 12 12 12 10 2 -3 -3 -3 -5 -6 -1 7 6 2 -2 -4 -0 -0 4 7 10 10 9 10 10 10 8 8 7 5 4
8 6 6 7 7 5 3 -0 -5 -2 -0 9 12 12 11 9 0 1 -0 -1 -1 -2 -2 -3 -2 -1 1 3 5 5 6 10 11 10 10 10 11 11 10 8 11 11 10
10 8 8 9 8 7 5 1 -5 -4 -0 4 6 5 5 1 3 3 1 0 0 1 1 2 4 5 5 6 7 7 8 10 10 10 10 10 9 8 9 9 10 10 10
10 9 10 10 9 7 6 3 -4 -5 -3 2 1 -1 2 5 7 4 3 2 0 2 4 5 5 6 8 8 7 6 6 8 10 10 10 10 9 9 3 3 5 9 10
13 10 11 10 11 9 7 5 -1 -5 -3 -1 2 4 5 8 10 8 3 3 1 3 5 6 7 7 7 7 6 6 7 9 9 9 8 9 9 8 1 2 10 9 8
14 14 14 14 12 11 8 7 4 -4 -3 -1 4 8 8 9 9 9 5 4 1 3 5 6 6 7 6 6 6 6 6 5 5 5 5 5 4 4 6 7 8 9 10
15 15 15 15 13 11 10 8 6 2 -3 1 6 8 8 9 10 8 6 4 1 3 5 6 7 7 7 6 6 6 4 3 2 1 1 1 2 6 8 8 8 8 8
14 15 14 13 13 12 12 10 7 5 -2 -0 3 6 7 8 8 8 7 4 1 4 6 7 7 8 8 7 7 7 2 -2 -3 -2 -2 -1 2 7 9 9 5 7 6
12 13 13 13 13 13 12 12 9 7 2 -2 1 4 6 6 6 7 7 5 1 3 6 7 7 7 7 7 5 -1 -4 -6 -8 -7 -5 -3 -1 8 8 1 -2 -3 -2
11 11 12 12 13 13 13 12 12 9 7 1 -1 1 2 2 4 5 6 5 2 4 7 7 6 7 7 5 -3 -6 -8 -9 -10 -9 -8 -7 -5 0 -2 -4 -4 -3 -3
11 11 11 12 12 13 13 13 12 11 9 8 4 2 0 1 5 6 7 5 5 6 8 7 6 7 7 -1 -6 -8 -12 -14 -12 -11 -9 -7 -7 -5 -4 -5 -5 -5 -6
11 11 11 11 12 12 12 13 12 12 11 10 9 8 8 8 7 7 7 7 9 8 8 7 8 7 6 -5 -8 -14 -15 -15 -14 -12 -11 -9 -8 -8 -7 -7 -7 -10 -15
3 9 11 11 11 11 11 12 13 13 13 11 11 11 10 11 11 5 5 9 9 10 9 8 8 7 -2 -7 -12 -14 -14 -14 -13 -12 -11 -10 -10 -11 -10 -11 -12 -11 -14
2 2 7 11 11 11 11 12 13 13 13 12 12 12 12 12 11 8 7 9 10 11 9 8 8 5 -6 -9 -10 -11 -13 -14 -14 -12 -11 -10 -11 -12 -12 -12 -12 -17 -18
2 2 2 6 11 11 11 12 12 13 12 11 12 12 12 12 12 10 10 10 11 11 9 9 8 -2 -7 -6 -6 -8 -11 -12 -13 -11 -10 -11 -11 -11 -12 -14 -15 -16 -17
-0 1 1 1 6 11 11 10 11 12 12 11 12 12 11 12 12 11 10 11 11 11 9 9 8 -5 -5 -3 -4 -7 -10 -12 -11 -11 -10 -10 -10 -9 -12 -13 -14 -15 -14
-1 -1 -2 -2 0 7 10 10 9 10 11 12 11 12 12 12 11 11 10 10 10 10 9 8 7 -4 -2 -2 -4 -6 -10 -10 -10 -10 -9 -10 -9 -9 -11 -13 -13 -13 -13
1 0 -1 -1 -2 -1 6 9 9 8 9 10 11 12 11 12 12 11 11 10 10 10 8 8 6 -3 -1 -1 -2 -6 -8 -8 -10 -10 -10 -10 -10 -11 -12 -13 -13 -12 -13
-0 -0 -0 0 -0 -1 0 6 9 10 8 9 10 12 11 11 11 11 11 11 10 9 8 8 2 -2 -1 -1 -1 -3 -7 -10 -10 -12 -12 -12 -11 -11 -13 -13 -13 -13 -14
-3 -2 -2 -1 -1 1 1 5 7 9 9 8 7 9 10 10 10 10 10 10 10 9 7 7 -2 -1 -0 -0 -0 -1 -2 -5 -10 -13 -13 -13 -13 -13 -13 -14 -15 -15 -16
-4 -4 -3 -3 -3 -2 1 1 4 8 9 8 7 7 8 8 10 10 10 11 11 10 7 3 -2 -1 -0 0 -0 -0 -1 -3 -7 -10 -13 -13 -14 -14 -15 -16 -16 -17 -19
-5 -5 -5 -5 -4 -3 -3 1 2 5 8 9 9 8 8 9 9 10 10 12 11 9 7 -1 -1 -0 0 0 0 -0 -1 -3 -7 -11 -13 -14 -15 -16 -16 -16 -17 -19 -21
Wind_Speed
15 17 17 18 18 17 17 16 14 12 11 9 8 7 7 5 2 2 3 3 3 3 9 9 12 13 12 9 6 2 2 2 3 4 5 4 2 3 5 4 4 4 1
18 19 19 20 20 18 16 15 13 12 12 11 9 7 5 4 1 2 1 4 6 8 13 15 14 16 11 6 5 3 2 1 2 3 2 2 3 7 7 5 5 5 5
18 21 21 21 20 18 17 14 12 11 11 12 11 8 8 6 2 3 7 8 9 11 16 14 13 12 9 4 3 1 1 5 5 5 5 7 7 10 8 6 5 6 4
16 21 23 22 20 18 16 13 11 10 11 13 14 12 10 7 5 9 10 11 11 13 16 14 11 9 7 4 2 5 9 9 7 6 5 8 7 8 8 6 4 5 3
18 21 23 22 20 18 15 14 12 12 13 16 16 15 11 7 7 9 11 12 13 13 13 10 8 7 6 8 9 11 10 9 8 7 6 8 7 7 8 6 7 7 5
21 23 24 22 19 17 15 14 13 13 14 17 20 16 11 8 10 9 10 11 11 12 12 11 11 11 10 10 11 10 8 9 7 5 4 5 5 5 6 3 4 3 2
22 23 23 21 19 17 15 14 12 12 13 15 15 13 13 13 11 9 10 10 10 10 10 11 11 11 10 9 8 7 7 7 5 5 3 0 2 5 5 3 2 3 2
19 22 20 19 17 15 14 13 11 11 12 13 16 16 15 12 10 9 9 9 9 9 10 10 9 8 7 7 6 5 5 7 6 3 3 4 5 7 7 4 3 3 2
15 21 20 18 17 15 14 13 12 11 11 12 16 15 14 11 9 8 8 8 8 8 8 8 6 5 5 5 5 5 5 5 3 3 2 5 6 7 7 4 0 3 5
16 16 17 18 19 17 15 14 13 12 13 13 15 15 13 11 10 10 9 7 7 7 7 6 4 3 3 4 3 3 2 2 3 3 3 5 7 6 3 1 2 2 2
19 18 17 17 20 19 17 15 14 14 14 16 16 16 15 13 11 11 10 8 7 7 6 5 4 3 3 2 1 2 2 4 5 6 6 6 7 4 4 4 4 2 4
25 23 19 17 21 21 20 18 17 16 16 18 18 17 15 14 12 11 10 9 8 8 7 6 4 3 3 3 4 4 5 7 8 9 8 7 6 3 3 1 1 1 3
25 23 21 18 18 22 22 20 19 18 17 18 19 18 17 16 15 14 13 11 10 9 9 6 5 5 4 4 5 6 7 8 9 9 7 6 6 3 4 2 2 2 3
26 25 23 21 19 20 21 21 21 20 19 19 19 20 20 19 17 15 14 11 11 10 10 8 6 5 5 6 7 9 10 10 8 7 5 5 5 7 4 3 3 3 4
26 27 26 23 22 21 21 20 20 21 21 18 20 20 20 18 16 16 14 13 13 12 10 8 6 6 7 8 9 9 9 8 8 7 5 4 3 5 5 4 4 5 5
30 30 27 26 24 24 24 23 21 21 19 21 21 22 20 17 17 16 17 17 15 12 9 9 8 9 9 9 10 8 7 6 6 6 5 4 4 4 5 5 5 5 6
19 31 37 31 29 28 25 25 24 24 20 24 21 20 21 17 16 17 20 19 16 12 11 11 10 11 10 9 8 7 6 6 6 7 6 4 4 4 4 4 5 7 9
26 22 28 40 36 32 30 27 29 27 25 26 23 20 20 17 16 21 21 20 17 14 15 13 12 11 10 8 7 6 5 5 6 7 6 5 5 4 5 6 8 9 10
36 33 29 30 44 39 32 30 31 32 29 27 27 23 24 21 23 21 20 19 20 18 16 14 12 12 10 8 6 5 5 5 6 5 6 6 5 6 6 8 10 9 9
43 42 38 34 34 43 39 33 32 34 32 27 29 29 28 28 27 23 21 22 22 19 17 14 13 12 10 7 6 5 5 3 3 4 5 6 6 8 10 11 11 11 12
37 34 38 36 35 40 43 40 36 37 35 34 31 33 32 32 30 27 25 24 21 20 18 15 15 14 10 7 6 5 6 5 4 5 6 6 8 10 10 12 13 15 17
24 26 38 40 35 37 43 45 46 40 38 38 35 35 34 35 33 30 29 26 22 22 19 18 16 15 12 8 7 6 6 7 8 7 8 9 10 10 12 13 16 18 21
36 32 27 26 30 33 34 43 44 42 39 40 39 37 38 39 36 31 31 28 27 22 20 17 18 16 13 10 8 6 4 5 7 9 11 11 12 12 13 15 18 21 24
35 34 32 31 29 30 31 37 46 47 45 43 41 42 40 39 37 33 32 32 30 26 22 19 20 18 15 12 9 6 5 6 3 4 10 12 14 14 16 19 22 21 23
30 34 36 36 34 34 34 35 37 47 47 48 46 43 42 40 38 37 35 35 33 29 25 23 22 19 16 12 9 7 7 7 8 8 8 10 15 17 21 20 21 21 21
18 21 25 25 33 32 35 38 38 42 48 48 48 45 42 43 42 41 36 36 34 31 27 25 23 20 16 13 10 8 8 8 9 9 12 17 20 22 20 20 19 20 18
Wind_Direction
173 171 166 162 160 162 161 162 165 162 159 163 176 180 182 193 206 260 269 246 219 172 114 101 108 132 142 123 98 81 120 225 253 254 249 245 250 26 30 35 51 95 193
164 171 169 165 162 164 162 163 168 174 177 175 186 185 181 176 163 331 104 146 147 138 130 123 112 119 127 121 94 98 113 155 188 166 144 105 70 58 44 40 33 45 65
174 169 167 165 165 162 158 154 157 164 175 181 187 186 160 149 128 131 118 118 122 132 137 135 134 142 147 157 182 350 119 137 124 89 72 70 62 50 46 45 69 61 32
181 172 168 164 162 161 157 150 144 148 158 159 150 148 167 149 111 120 112 109 112 127 147 145 152 160 175 201 165 120 119 117 104 90 67 55 66 46 44 58 59 75 84
183 178 171 165 165 164 158 150 143 141 143 149 149 175 180 162 132 121 114 110 110 117 135 152 160 160 147 123 113 114 118 107 95 77 61 50 49 31 33 56 56 56 54
182 183 174 168 167 166 160 152 145 142 146 157 168 180 188 171 143 127 117 112 110 113 117 120 121 119 115 111 109 113 124 122 108 106 83 53 25 6 349 52 20 20 7
182 185 179 172 171 171 166 155 148 147 147 156 168 174 164 153 146 137 125 119 116 114 116 117 117 114 109 106 104 111 125 146 151 132 116 181 7 309 324 279 282 277 278
186 187 182 179 176 177 171 160 155 155 152 154 157 154 153 154 155 148 137 129 124 121 122 120 117 113 108 104 101 116 151 182 175 182 177 256 285 306 311 328 318 273 268
191 186 184 187 187 186 180 171 168 166 163 157 163 161 164 166 171 164 150 139 134 130 129 124 117 110 103 104 116 121 153 173 197 208 232 261 281 296 303 336 156 263 260
197 198 197 199 195 193 188 183 179 178 175 168 166 166 168 170 179 174 163 155 149 148 146 141 135 131 114 128 127 136 191 235 256 251 261 284 299 295 306 305 241 266 69
204 205 212 216 209 203 198 190 187 189 186 181 176 177 178 177 172 171 173 173 170 170 170 171 175 171 165 174 156 188 238 265 274 276 277 285 287 290 259 216 238 280 292
206 205 217 227 216 210 207 202 197 195 195 192 185 186 188 189 186 183 185 184 188 188 189 197 200 204 217 235 260 261 265 274 277 271 276 279 275 246 202 167 272 262 336
217 219 222 225 221 221 216 211 209 204 201 200 196 196 200 200 201 198 198 201 200 204 208 208 208 218 252 272 278 277 277 276 276 271 272 273 269 163 133 313 282 291 319
224 229 231 227 222 221 223 224 223 214 207 204 202 203 207 210 205 203 201 208 210 211 210 210 226 246 268 269 276 283 287 287 281 278 275 277 256 242 281 304 297 306 306
224 229 235 229 223 224 223 226 229 219 217 214 207 207 211 211 216 213 210 217 211 212 214 225 239 255 269 277 285 285 287 283 280 282 283 283 268 243 255 271 287 301 311
224 230 236 232 229 228 228 226 229 226 224 216 211 210 213 215 223 223 223 217 215 215 229 236 254 263 269 278 285 284 285 284 278 279 284 286 278 259 261 276 289 301 308
240 233 231 234 229 229 233 229 229 237 225 219 211 214 220 220 228 225 217 219 222 231 238 239 253 263 264 272 276 276 278 283 280 277 287 296 294 285 285 290 300 306 308
243 246 239 229 229 228 229 229 227 231 232 222 217 219 221 224 227 225 219 221 227 233 240 243 254 252 257 259 264 266 264 274 278 276 283 294 300 290 288 296 306 309 312
240 244 245 242 229 227 229 231 233 230 236 224 212 219 225 224 229 231 227 230 229 239 244 245 254 246 245 246 256 256 256 269 267 271 286 296 297 308 303 317 321 319 318
239 243 248 247 242 232 229 233 234 232 234 234 213 215 224 227 229 230 230 228 232 249 245 251 248 240 234 236 237 239 245 215 220 264 279 283 291 303 310 322 316 313 318
242 242 246 249 243 236 230 229 230 231 229 230 223 219 224 224 225 224 222 231 240 246 234 253 244 231 224 221 219 222 214 211 216 236 250 257 282 290 299 306 308 314 317
254 249 243 245 245 239 237 235 235 225 229 230 226 222 223 227 226 229 231 233 237 238 231 244 240 229 222 212 217 209 205 219 218 233 240 256 267 273 289 298 307 310 313
254 255 250 247 249 247 240 237 234 232 230 230 224 221 224 225 229 233 236 237 235 242 242 245 235 228 226 218 211 214 206 210 214 238 239 251 256 268 281 293 300 302 304
252 254 254 252 249 253 246 236 234 230 228 230 230 227 229 228 226 230 234 238 231 231 227 240 229 226 226 228 224 223 236 248 244 239 238 246 255 262 278 290 294 295 296
252 249 249 250 252 250 250 248 238 236 234 232 229 229 228 231 227 228 230 233 228 226 223 223 221 222 224 228 236 242 249 257 259 253 260 247 258 267 285 293 296 297 297
244 249 250 257 246 245 253 250 246 239 236 234 232 228 233 228 228 226 229 229 225 224 222 218 218 221 225 230 238 250 261 268 272 272 277 286 288 294 295 300 300 300 300
Height
1511 1513 1515 1517 1519 1520 1522 1523 1524 1526 1528 1528 1528 1529 1530 1530 1531 1531 1531 1531 1532 1532 1532 1532 1532 1534 1534 1536 1537 1538 1538 1538 1538 1538 1538 1538 1537 1537 1536 1536 1536 1536 1536
1510 1513 1515 1517 1518 1520 1522 1523 1524 1525 1527 1528 1528 1528 1529 1530 1531 1531 1530 1530 1531 1531 1532 1533 1534 1535 1537 1538 1538 1538 1538 1538 1538 1538 1537 1537 1537 1537 1536 1536 1536 1536 1536
1510 1512 1515 1517 1519 1520 1522 1523 1524 1525 1526 1527 1528 1529 1530 1531 1531 1531 1531 1531 1531 1531 1533 1534 1535 1537 1538 1538 1538 1538 1538 1538 1538 1539 1538 1538 1537 1537 1537 1537 1537 1537 1537
1511 1513 1515 1517 1520 1521 1522 1523 1524 1525 1525 1526 1528 1529 1530 1532 1532 1532 1532 1531 1532 1532 1534 1535 1536 1537 1538 1538 1538 1538 1538 1538 1539 1538 1538 1539 1538 1538 1538 1538 1538 1537 1537
1511 1513 1516 1517 1520 1521 1522 1523 1524 1525 1526 1527 1528 1529 1530 1532 1532 1533 1533 1533 1533 1534 1535 1536 1537 1537 1538 1538 1538 1538 1539 1539 1539 1539 1539 1538 1539 1540 1539 1539 1539 1538 1538
1511 1513 1516 1518 1520 1521 1522 1523 1524 1525 1526 1527 1529 1530 1531 1532 1533 1533 1534 1534 1535 1536 1537 1537 1537 1538 1538 1539 1539 1539 1540 1539 1539 1540 1540 1541 1541 1541 1540 1540 1539 1538 1538
1510 1514 1516 1518 1520 1522 1522 1522 1523 1525 1527 1528 1530 1531 1532 1533 1534 1535 1535 1535 1536 1537 1538 1538 1539 1539 1539 1539 1540 1540 1540 1540 1540 1540 1540 1541 1541 1541 1540 1540 1539 1538 1537
1510 1513 1515 1518 1520 1522 1523 1523 1524 1525 1526 1527 1529 1531 1532 1534 1535 1536 1536 1537 1537 1538 1539 1540 1540 1540 1540 1540 1540 1540 1539 1539 1540 1540 1541 1541 1541 1541 1539 1539 1539 1539 1538
1512 1513 1515 1518 1520 1522 1523 1524 1524 1525 1526 1527 1529 1530 1532 1533 1535 1536 1537 1537 1538 1539 1540 1540 1540 1541 1540 1540 1539 1539 1539 1539 1539 1540 1541 1541 1541 1539 1539 1539 1538 1537 1537
1513 1514 1515 1517 1519 1520 1522 1523 1524 1525 1526 1527 1529 1530 1532 1533 1534 1535 1536 1538 1538 1539 1540 1540 1540 1541 1541 1540 1540 1539 1539 1539 1540 1540 1539 1540 1539 1538 1538 1537 1537 1536 1536
1511 1513 1514 1516 1518 1520 1521 1522 1523 1524 1525 1527 1528 1530 1531 1532 1534 1535 1536 1537 1538 1539 1540 1540 1540 1540 1540 1540 1540 1540 1538 1539 1538 1539 1539 1538 1538 1537 1538 1535 1536 1535 1535
1509 1511 1513 1515 1516 1518 1520 1521 1522 1523 1524 1525 1527 1528 1530 1531 1532 1533 1535 1536 1537 1538 1539 1539 1539 1540 1540 1539 1539 1539 1538 1538 1537 1538 1538 1537 1536 1535 1536 1534 1534 1534 1533
1507 1510 1511 1513 1515 1517 1518 1519 1520 1522 1523 1525 1526 1527 1528 1529 1531 1532 1533 1534 1535 1537 1538 1538 1539 1539 1539 1539 1538 1537 1538 1537 1535 1536 1536 1535 1535 1534 1534 1533 1533 1531 1532
1504 1506 1509 1511 1513 1514 1516 1517 1519 1520 1522 1523 1524 1525 1526 1527 1529 1530 1532 1533 1534 1535 1536 1537 1538 1539 1538 1538 1537 1536 1536 1535 1534 1534 1534 1534 1533 1532 1533 1532 1532 1531 1532
1501 1503 1504 1507 1508 1510 1512 1515 1517 1518 1520 1521 1523 1523 1524 1526 1527 1529 1530 1531 1532 1533 1535 1536 1536 1537 1537 1536 1536 1535 1534 1534 1533 1533 1532 1532 1532 1531 1532 1532 1531 1531 1530
1499 1499 1501 1503 1504 1505 1507 1510 1512 1515 1517 1518 1519 1520 1521 1523 1525 1526 1528 1529 1531 1532 1534 1534 1534 1535 1535 1534 1534 1533 1533 1532 1532 1532 1531 1530 1530 1531 1530 1530 1530 1530 1529
1494 1496 1498 1498 1500 1501 1502 1505 1508 1510 1513 1514 1516 1518 1519 1520 1522 1523 1526 1527 1529 1531 1532 1533 1533 1533 1533 1533 1532 1531 1531 1530 1531 1530 1530 1530 1529 1529 1529 1529 1529 1528 1528
1488 1490 1492 1494 1495 1497 1498 1500 1503 1506 1508 1511 1513 1515 1516 1517 1520 1521 1523 1525 1526 1528 1530 1531 1531 1531 1531 1530 1530 1529 1529 1528 1528 1528 1528 1529 1529 1528 1528 1528 1528 1527 1525
1481 1484 1487 1488 1490 1492 1494 1497 1499 1501 1503 1506 1509 1511 1514 1515 1518 1521 1522 1524 1525 1527 1528 1529 1530 1530 1529 1529 1528 1527 1527 1526 1526 1527 1526 1527 1527 1527 1526 1526 1526 1524 1523
1475 1477 1480 1483 1485 1488 1492 1494 1497 1497 1500 1502 1504 1506 1510 1512 1515 1518 1519 1522 1524 1525 1526 1527 1527 1528 1527 1527 1526 1526 1525 1525 1525 1524 1524 1525 1525 1524 1525 1523 1522 1521 1520
1468 1470 1472 1474 1479 1482 1485 1489 1491 1492 1495 1496 1499 1503 1506 1509 1512 1514 1515 1518 1520 1522 1524 1525 1525 1525 1525 1525 1525 1524 1523 1524 1524 1523 1523 1522 1522 1522 1521 1520 1519 1518 1516
1461 1463 1466 1468 1470 1474 1476 1480 1483 1485 1488 1491 1494 1497 1501 1505 1507 1510 1512 1514 1516 1518 1520 1521 1522 1522 1522 1522 1522 1522 1521 1523 1521 1521 1520 1520 1519 1519 1518 1516 1515 1514 1512
1454 1457 1459 1461 1463 1465 1469 1471 1476 1481 1483 1485 1488 1491 1493 1498 1502 1506 1509 1510 1512 1514 1516 1517 1519 1519 1520 1520 1519 1520 1519 1518 1518 1518 1517 1517 1517 1516 1515 1514 1513 1511 1508
1447 1451 1453 1455 1457 1458 1461 1462 1466 1469 1473 1476 1480 1484 1488 1492 1496 1499 1503 1505 1507 1509 1511 1512 1514 1516 1516 1517 1517 1516 1516 1516 1516 1516 1515 1514 1514 1514 1513 1511 1509 1506 1503
1441 1444 1446 1447 1449 1452 1453 1454 1459 1461 1464 1468 1472 1477 1481 1485 1489 1492 1496 1499 1501 1504 1507 1508 1510 1511 1513 1513 1514 1513 1513 1512 1512 1512 1510 1511 1511 1510 1509 1507 1504 1501 1498
1435 1437 1440 1440 1441 1444 1445 1447 1450 1452 1457 1460 1465 1469 1474 1478 1481 1485 1488 1493 1496 1499 1501 1504 1507 1507 1509 1510 1510 1509 1509 1509 1508 1508 1507 1505 1504 1503 1503 1502 1499 1496 1493